Weather History for Ramona, CA

Change the Weather History Date:

Sunday, October 13, 2013

  Actual Average Record
Temperature  
Mean Temperature 61 °F 64 °F  
Max Temperature 71 °F 80 °F 103 °F (1978)
Min Temperature 51 °F 48 °F 36 °F (1975)
Degree Days  
Heating Degree Days 4 3  
Month to date heating degree days 47 28  
Since 1 July heating degree days 62 46  
Cooling Degree Days 0 2  
Month to date cooling degree days 9 31  
Year to date cooling degree days 892 824  
Growing Degree Days 6 (Base 50)    
Moisture  
Dew Point 49 °F    
Average Humidity 72    
Maximum Humidity 100    
Minimum Humidity 44    
Precipitation  
Precipitation 0.00 in 0.02 in 0.68 in (1987)
Month to date precipitation 1.10 0.20  
Year to date precipitation 5.69 12.10  
Since 1 July precipitation 1.19 0.77  
Snow  
Snow 0.00 in - - ()
Month to date snowfall 0.0  
Year to date snowfall 0.0  
Since 1 July snowfall 0.0  
Snow Depth 0.00 in    
Sea Level Pressure  
Sea Level Pressure 29.97 in    
Wind  
Wind Speed 4 mph (West)    
Max Wind Speed 15 mph    
Max Gust Speed 20 mph    
Visibility 6 miles    
Events Fog    
T = Trace of Precipitation, MM = Missing Value Source: NWS Daily Summary

Daily Weather History Graph

Daily Weather History Graph

Search for Another Location

Airport:

Trip Planner

Search our weather history database for the weather conditions in past years. The results will help you decide how hot, cold, wet, or windy it might be!

Date:

Astronomy

Oct. 13, 2013 Rise Set
Actual Time 6:50 AM PDT 6:16 PM PDT
Civil Twilight 6:25 AM PDT 6:41 PM PDT
Nautical Twilight 5:57 AM PDT 7:09 PM PDT
Astronomical Twilight 5:28 AM PDT 7:38 PM PDT
Moon 2:56 PM PDT (10/13) 1:22 AM PDT (10/13)
Length of Visible Light 12h 15m
Length of Day
11h 25m
Waxing Gibbous, 70% of the Moon is Illuminated
Oct 13
Waxing Gibbous
Oct 18
Full
Oct 26
Last Quarter
Nov 3
New
Nov 9
First Quarter

Hourly Weather History & Observations

Time (PDT) Temp. Dew Point Humidity Pressure Visibility Wind Dir Wind Speed Gust Speed Precip Events Conditions
12:53 AM 55.9 °F 53.1 °F 90% 29.94 in 5.0 mi SW 3.5 mph - N/A   Overcast
1:53 AM 55.0 °F 53.1 °F 93% 29.93 in 4.0 mi Calm Calm - N/A   Overcast
2:53 AM 55.0 °F 53.1 °F 93% 29.93 in 4.0 mi Calm Calm - N/A   Overcast
3:53 AM 54.0 °F 53.1 °F 97% 29.92 in 4.0 mi Calm Calm - N/A   Overcast
4:53 AM 54.0 °F 52.0 °F 93% 29.93 in 4.0 mi Calm Calm - N/A   Overcast
5:53 AM 53.1 °F 50.0 °F 89% 29.94 in 7.0 mi ENE 4.6 mph - N/A   Overcast
6:53 AM 52.0 °F 50.0 °F 93% 29.94 in 5.0 mi Calm Calm - N/A   Overcast
7:53 AM 53.1 °F 50.0 °F 89% 29.96 in 4.0 mi Calm Calm - N/A   Overcast
8:53 AM 54.0 °F 50.0 °F 86% 29.98 in 6.0 mi Calm Calm - N/A   Overcast
9:38 AM 57.2 °F 50.0 °F 77% 30.01 in 8.0 mi Calm Calm - N/A   Overcast
9:53 AM 57.9 °F 50.0 °F 75% 29.99 in 9.0 mi Calm Calm - N/A   Scattered Clouds
10:53 AM 62.1 °F 51.1 °F 67% 29.98 in 10.0 mi Calm Calm - N/A   Clear
11:53 AM 66.9 °F 46.9 °F 49% 29.96 in 10.0 mi Variable 4.6 mph - N/A   Clear
12:53 PM 69.1 °F 46.9 °F 45% 29.95 in 10.0 mi SW 8.1 mph 19.6 mph N/A   Clear
1:53 PM 69.1 °F 51.1 °F 53% 29.93 in 10.0 mi West 12.7 mph - N/A   Clear
2:53 PM 68.0 °F 53.1 °F 59% 29.94 in 10.0 mi West 13.8 mph - N/A   Clear
3:53 PM 66.0 °F 52.0 °F 60% 29.95 in 10.0 mi West 8.1 mph - N/A   Clear
4:53 PM 64.9 °F 51.1 °F 61% 29.95 in 10.0 mi West 8.1 mph - N/A   Clear
5:53 PM 62.1 °F 50.0 °F 65% 29.96 in 10.0 mi SW 4.6 mph - N/A   Clear
6:53 PM 57.0 °F 50.0 °F 77% 29.98 in 10.0 mi NNW 3.5 mph - N/A   Clear
7:53 PM 55.0 °F 50.0 °F 83% 29.99 in 10.0 mi Calm Calm - N/A   Clear
8:53 PM 51.1 °F 48.0 °F 89% 30.00 in 10.0 mi Calm Calm - N/A   Clear
9:53 PM 50.0 °F 46.9 °F 89% 30.01 in 7.0 mi Calm Calm - N/A   Clear
10:39 PM 46.4 °F 44.6 °F 93% 30.02 in 1.8 mi Calm Calm - N/A   Clear
10:49 PM 48.2 °F 46.4 °F 93% 30.03 in 3.0 mi Calm Calm - N/A   Partly Cloudy
10:53 PM 48.9 °F 46.0 °F 90% 30.01 in 6.0 mi Calm Calm - N/A   Clear
11:27 PM 44.6 °F 44.6 °F 100% 30.02 in 1.8 mi Calm Calm - N/A   Clear
11:31 PM 44.6 °F 42.8 °F 93% 30.02 in 0.8 mi Calm Calm - N/A   Clear
11:38 PM 44.6 °F 42.8 °F 93% 30.02 in 0.5 mi Calm Calm - N/A Fog Fog
11:48 PM 44.6 °F 42.8 °F 93% 30.02 in 0.2 mi Calm Calm - N/A Fog Fog
11:53 PM 44.1 °F 42.1 °F 93% 30.00 in 0.2 mi Calm Calm - N/A Fog Fog